Flag for U.S.A. Weather past 2 weeks in Wright, Florida, U.S.A.

Now
53 °F

Sunny.


Feels Like: 50 °F
Forecast: 39 / 60 °F
Wind: 9 mph from East

Location: Hurlburt Field

Current Time: Jan 31, 2015 at 11:42:24 AM

Latest Report: Jan 31, 2015 at 10:58 AM


Visibility: 10 mi

Pressure: 30.34 "Hg

Humidity: 35%

Dew point: 26 °F

Location of WrightLocation

Historic Weather in Wright — Graph

°F

Wright temperature yesterday

Maximum temperature yesterday: 63 °F (at 12:58 AM)
Minimum temperature yesterday: 39 °F (at 11:58 PM)
Average temperature yesterday: 53 °F

Past Weeks' High & Low Weather Summary

 TemperatureHumidityPressure
High69 °F (Jan 21, 10:58 AM)94% (Jan 23, 3:52 AM)30.35 "Hg (Jan 23, 3:52 AM)
Low32 °F (Jan 19, 5:58 AM)18% (Jan 18, 3:58 PM)29.77 "Hg (Jan 23, 2:03 PM)
Average52 °F64%30.10 "Hg
* Reported Jan 16 9:58 AM — Jan 31 9:58 AM, Wright, Weather by CustomWeather, © 2014

Note: Actual official high and low records may vary slightly from our data, if they occured in-between our weather recording intervals... More about our weather records

Advertising

Wright weather history for previous 24 hours

 ConditionsComfort  
Time TempWeatherWind HumidityBarometerVisibility
9:58 AM
Jan 31
51 °FSunny.10 mph37%30.35 "Hg10 mi
8:58 AM47 °FSunny.8 mph39%30.34 "Hg10 mi
7:58 AM42 °FSunny.10 mph46%30.32 "Hg10 mi
6:58 AM38 °FSunny.8 mph54%30.32 "Hg10 mi
5:58 AM38 °FSunny.8 mph55%30.32 "Hg10 mi
4:58 AM39 °FClear.9 mph54%30.31 "Hg10 mi
3:58 AM37 °FClear.8 mph65%30.31 "Hg10 mi
2:58 AM37 °FClear.6 mph70%30.31 "Hg10 mi
1:58 AM39 °FClear.8 mph64%30.32 "Hg10 mi
12:58 AM38 °FClear.9 mph72%30.32 "Hg10 mi
11:58 PM
Jan 30
39 °FClear.6 mph74%30.32 "Hg10 mi
10:58 PM43 °FClear.6 mph63%30.34 "Hg10 mi
9:58 PM41 °FClear.8 mph70%30.34 "Hg10 mi
8:58 PM47 °FClear.2 mph56%30.34 "Hg10 mi
7:58 PM47 °FClear.3 mph61%30.32 "Hg10 mi
6:58 PM51 °FClear.3 mph44%30.31 "Hg10 mi
5:58 PM51 °FClear.7 mph47%30.29 "Hg10 mi
4:58 PM58 °FClear.7 mph32%30.27 "Hg10 mi
3:58 PM61 °FSunny.13 mph26%30.25 "Hg10 mi
2:58 PM62 °FSunny.12 mph24%30.24 "Hg10 mi
1:58 PM63 °FSunny.14 mph25%30.24 "Hg10 mi
12:58 PM61 °FSunny.15 mph27%30.25 "Hg10 mi
11:58 AM57 °FSunny.15 mph34%30.29 "Hg10 mi
Weather by CustomWeather, © 2014

See weather overviewHow to use our weather pages